Dikgonye, Botswana

7:06 AM CAT on February 27, 2017 (GMT +0200)
Sir Seretse Khama International | | Change Station

Elev 3297 ft 24.56 °S, 25.92 °E | Updated 6 minutes ago

Rain
Rain
66 °F
Feels Like 66 °F
N
8
Wind Variable Wind from ENE

Today
High -- | Low -- °F
--% Chance of Precip.
Yesterday
High -- | Low -- °F
Precip. -- in
Pressure 30.06 in
Visibility 6.2 miles
Clouds Overcast 2000 ft
Dew Point 66 °F
Humidity 100%
Rainfall 0.00 in
Snow Depth Not available.
6:10 AM 6:46 PM
New Moon, 0% visible
METAR FBSK 270500Z 06007KT 9999 OVC020 19/19 Q1018
Pressure 30.06 in
Visibility 6.2 miles
Clouds Overcast 2000 ft
Dew Point 66 °F
Humidity 100%
Rainfall 0.00 in
Snow Depth Not available.
6:10 AM 6:46 PM
New Moon, 0% visible
METAR FBSK 270500Z 06007KT 9999 OVC020 19/19 Q1018

Get Your Daily Forecast Email!

Thanks for signing up!

Be on the lookout for a verification email in your inbox.

You'll start receiving the daily forecast at 8 AM.

×

10-Day Weather Forecast

No radar image for this location.
×

Almanac

Astronomy

Feb. 27, 2017 Rise Set
Actual Time
Civil Twilight
Nautical Twilight
Astronomical Twilight
Moon
Length of Visible Light
Length of Day
Tomorrow will be .
, % of the Moon is Illuminated

Today's Extremes

Country Highs Country Lows

Community

WunderPhotos

Upload Photos

1,962,540 photos uploaded!

WunderBlog® & News

Nearby

Air Quality

  Air Quality AQ Index Pollutant
Not available.

Snow Depth

Station Depth Elevation

Earthquake Activity

City Distance Mag. Time & Date
Minimum magnitude displayed is 2.5.

Coastal Water Temperatures

Place Temperature

Stations

Nearby Weather Stations

Station Location Temp. Windchill Dew Point Humidity Wind Precip. Elev Updated Type